GFSFLT1_500_rhum_141.txt.gz
RH
14 17 16 15 14 13 12 11 9 8 8 7 7 8 7 8 9 11 18 23 30 61 74 83 91 92 37 28 28 32 29 28
21 23 21 19 17 15 11 8 8 6 4 4 4 4 4 4 6 7 10 15 20 27 62 70 76 87 80 36 34 41 38 34
26 24 23 20 16 13 10 6 4 3 3 2 2 3 4 4 3 4 6 9 13 19 30 62 92 95 98 68 45 45 48 40
27 24 20 16 10 6 3 4 4 4 13 16 21 19 14 12 10 5 4 5 8 12 15 24 51 97 97 94 65 48 46 47
22 14 7 5 4 6 11 8 8 14 18 20 19 15 13 11 13 11 12 6 5 7 10 13 22 58 90 97 86 58 50 51
13 7 4 6 10 14 10 9 10 15 18 29 18 16 16 18 21 21 14 13 12 5 6 9 12 72 57 74 95 94 57 49
6 4 6 17 20 14 9 12 15 21 27 30 26 23 20 25 24 35 31 22 20 16 5 6 10 15 89 86 83 96 84 54
6 14 26 29 22 14 17 26 36 35 33 32 47 24 24 34 51 42 55 41 36 19 12 5 7 12 62 96 96 97 97 98
20 30 25 30 22 36 36 35 35 31 30 43 51 38 35 43 67 79 77 66 62 36 17 9 5 9 13 49 96 92 98 97
32 30 31 26 43 55 50 47 39 35 31 40 54 45 37 37 56 100 92 95 70 41 19 16 5 7 16 38 91 73 96 97
36 41 27 38 62 58 49 44 43 38 34 35 26 44 52 61 42 21 21 35 54 46 30 26 14 5 11 54 50 73 92 86
60 44 36 69 59 49 48 44 48 40 39 48 32 41 47 64 24 23 22 45 66 47 28 31 44 14 10 82 95 94 75 95
52 41 74 66 55 45 51 64 58 40 51 51 40 52 64 72 99 100 26 28 33 40 39 48 62 62 20 80 97 97 97 90
39 62 83 72 60 51 58 61 67 66 64 60 66 85 74 85 97 100 98 98 69 49 44 94 75 52 33 24 90 68 72 94
46 96 90 79 65 78 73 72 60 78 94 100 84 98 94 100 100 98 100 99 81 76 88 96 100 47 17 17 46 88 93 95
89 99 97 77 71 92 100 92 73 92 95 100 100 98 94 86 81 98 100 87 98 97 99 98 100 95 59 66 78 97 98 98
98 100 92 54 60 93 100 100 100 100 100 100 100 100 100 100 100 100 99 95 79 100 100 90 83 86 81 54 78 89 92 96
100 100 84 27 36 48 94 95 100 100 100 100 100 100 100 100 100 100 100 100 100 100 100 100 85 52 42 47 64 100 100 93
94 96 58 26 27 33 43 91 76 79 70 45 23 20 73 75 53 92 98 80 89 100 100 100 99 91 82 78 79 86 90 88

GFSFLT1_500_rhum_144.txt.gz
RH
16 21 21 21 21 18 16 16 18 18 14 12 9 7 7 7 6 7 7 8 9 10 10 12 27 54 75 91 89 90 35 26
22 23 23 22 22 20 17 20 22 19 16 12 9 5 5 6 6 5 5 5 6 7 10 12 13 26 61 79 90 94 79 32
23 25 27 29 28 27 28 26 22 19 14 9 6 6 5 5 4 4 3 3 3 4 5 9 11 14 22 50 80 98 100 54
33 35 34 34 34 32 29 25 20 16 10 9 7 4 2 3 4 11 17 14 7 5 4 4 8 10 13 27 64 99 98 88
41 41 41 41 37 31 27 21 14 6 6 3 2 8 12 14 16 12 11 12 14 12 10 4 3 7 10 14 28 72 96 95
47 46 48 39 24 20 10 5 4 4 4 8 8 10 15 17 19 16 17 16 16 16 12 12 7 4 6 8 14 21 27 93
57 56 37 26 28 12 3 8 7 9 14 13 12 13 17 23 30 28 24 20 20 18 21 17 16 8 4 5 8 13 24 52
62 30 27 30 8 7 11 10 11 15 15 26 22 18 23 31 43 46 48 40 34 40 42 31 27 20 13 7 5 9 14 28
39 40 18 6 9 16 22 20 23 20 35 37 27 26 27 41 47 42 27 37 54 56 46 56 36 26 21 16 9 6 10 19
40 10 11 10 17 30 26 28 36 30 37 53 47 36 37 34 22 23 33 32 27 54 93 95 65 32 28 23 18 6 7 19
17 13 11 15 37 27 34 44 44 43 49 52 51 48 34 33 37 22 25 33 48 46 99 98 99 45 37 40 22 10 6 14
16 13 20 31 36 30 49 46 41 48 48 57 46 46 47 39 27 35 48 55 61 65 56 95 98 83 72 71 34 13 6 9
11 15 33 34 36 43 52 52 41 50 44 53 50 47 44 63 58 46 73 96 92 60 64 47 51 51 51 49 27 32 16 8
17 46 36 36 56 64 63 54 50 55 53 63 56 60 61 68 54 65 81 99 100 100 86 71 38 38 44 53 64 40 14 11
52 48 44 66 75 78 68 64 69 73 60 60 68 71 75 82 85 73 94 94 100 100 100 99 100 89 82 81 55 100 100 45
42 44 71 77 84 68 68 87 96 92 86 86 80 76 89 93 96 94 96 99 100 100 100 99 99 99 98 80 61 100 100 100
69 85 83 86 90 46 60 71 100 100 100 100 100 100 100 100 92 100 100 100 100 99 97 99 97 100 100 100 58 39 30 33
97 91 88 89 88 31 40 47 96 98 88 63 66 92 95 98 100 100 99 100 100 100 94 100 93 92 97 98 100 100 100 91
98 98 96 88 83 32 38 42 48 89 62 35 12 19 66 56 34 71 90 88 97 93 83 95 98 96 76 69 63 69 78 75

GFSFLT1_500_rhum_150.txt.gz
RH
8 9 7 6 7 8 8 10 10 10 13 16 16 14 13 14 16 18 20 22 20 18 15 13 12 10 9 8 5 5 6 12
7 7 8 8 8 10 11 11 10 10 13 17 16 17 18 20 21 20 19 18 18 16 15 14 13 12 10 8 5 4 4 7
12 11 12 12 12 12 11 11 14 16 17 18 18 19 20 22 23 24 20 16 14 15 14 13 12 10 8 5 4 4 4 5
29 24 22 22 22 20 19 18 19 22 21 19 21 20 21 21 20 20 19 20 17 11 8 6 5 4 5 5 5 5 4 3
36 34 32 31 29 27 28 30 28 22 21 24 26 25 22 22 23 22 19 10 6 4 2 2 2 5 5 6 4 3 3 3
41 40 39 39 39 38 34 28 24 31 37 39 33 30 26 24 20 16 4 3 6 11 9 9 11 10 10 9 9 8 7 5
37 37 37 37 34 32 32 41 48 50 47 42 38 31 22 13 4 4 5 10 18 22 23 19 22 23 26 22 17 11 9 8
46 46 43 49 59 63 63 62 61 55 52 27 13 12 4 5 12 14 21 23 19 19 19 23 16 20 27 35 33 19 13 11
98 97 94 87 77 72 68 59 59 50 10 8 18 14 16 25 20 39 36 30 27 24 24 18 13 18 26 28 29 33 20 18
94 93 89 91 95 84 72 66 24 6 11 19 25 34 36 30 43 45 62 46 33 21 25 25 29 29 30 30 27 27 37 37
98 99 92 81 83 75 37 12 9 17 19 28 38 37 37 39 50 52 49 46 27 18 24 26 36 37 32 36 38 21 26 30
100 100 100 93 58 21 11 15 29 22 33 35 36 43 46 50 66 68 57 51 47 36 36 51 59 41 39 60 82 70 61 40
96 100 79 29 22 21 26 48 30 46 56 48 34 41 48 52 62 62 51 44 42 44 32 44 55 39 67 98 100 100 100 100
100 98 86 25 36 51 54 40 60 78 64 52 47 45 49 51 55 56 47 48 51 34 33 28 56 55 81 95 96 97 98 99
99 100 77 27 45 62 48 61 88 86 62 63 70 85 72 96 80 76 68 72 74 74 66 39 59 68 91 93 100 99 100 82
100 74 28 30 68 77 76 88 100 89 54 70 91 96 98 100 100 100 100 95 97 94 85 80 74 77 84 88 98 100 95 100
54 32 34 58 80 90 97 100 100 91 47 59 99 72 64 90 95 100 100 100 100 97 96 98 99 99 96 100 99 100 100 95
34 38 30 41 84 96 100 100 100 96 45 43 72 81 36 25 92 98 100 88 41 49 70 84 94 99 100 100 100 100 100 100
33 30 24 30 47 89 100 100 100 100 83 46 46 78 73 50 15 90 83 93 86 86 35 13 30 65 76 98 99 99 99 100

GFSFLT1_500_rhum_153.txt.gz
RH
5 5 6 6 6 7 7 6 6 6 7 8 9 10 11 10 10 12 14 12 13 12 10 8 9 11 12 13 11 15 16 14
14 12 11 9 9 8 8 8 8 9 10 10 11 11 10 11 13 13 15 15 14 12 9 8 8 12 14 15 13 12 13 15
32 31 32 32 30 27 22 19 17 15 14 14 15 16 16 16 18 18 18 17 15 13 13 13 15 13 13 13 13 14 12 12
29 30 30 30 30 32 33 32 31 28 25 23 22 20 21 20 18 19 20 18 14 14 17 16 15 13 14 14 12 10 12 10
38 38 37 36 35 35 35 34 33 32 31 30 28 24 20 20 20 18 20 20 17 18 18 14 11 8 5 5 5 3 3 3
29 29 29 31 33 33 32 32 32 32 29 26 24 24 25 24 26 32 26 25 21 13 5 4 4 3 3 3 3 3 4 4
24 24 26 27 28 28 28 30 31 34 36 39 44 50 52 45 36 28 23 9 3 5 9 13 13 15 19 22 17 14 13 10
50 45 45 45 45 48 53 59 58 60 65 67 69 61 51 37 25 12 4 6 11 12 23 26 20 18 17 20 24 15 14 18
73 79 83 82 89 92 91 90 83 80 79 75 60 21 9 9 8 12 18 24 33 32 24 37 31 24 23 24 22 20 17 17
81 80 85 89 94 98 98 90 81 74 65 27 8 15 18 24 26 28 26 26 37 44 58 56 33 22 24 26 27 24 23 19
97 100 100 99 95 93 93 88 62 26 12 13 23 23 39 34 36 42 37 38 57 52 50 53 33 33 36 33 27 45 42 35
99 100 98 90 83 90 67 35 21 18 39 39 45 52 40 41 47 47 41 49 62 62 55 45 32 32 28 43 35 59 59 52
93 98 97 91 97 88 41 28 47 60 52 63 74 57 42 50 41 44 44 47 52 53 49 49 42 49 50 60 65 72 69 56
81 88 100 100 99 100 48 55 66 54 63 96 84 56 73 74 56 59 58 61 63 61 55 46 48 51 75 82 81 62 77 87
68 97 100 100 99 39 37 82 89 81 80 100 83 59 92 90 84 83 88 82 82 86 90 79 58 46 77 89 90 99 96 98
72 97 100 98 33 34 83 100 100 90 97 100 85 54 96 68 42 82 89 100 91 93 100 100 93 85 94 88 94 74 87 99
75 99 97 31 48 53 63 94 100 100 100 100 93 46 98 100 94 27 73 99 86 33 37 56 81 100 100 100 100 100 100 100
98 38 31 47 41 34 39 70 100 100 100 100 100 52 47 67 82 72 31 56 93 97 82 22 14 27 47 94 100 100 100 100
28 26 23 26 24 32 39 52 72 100 100 100 100 100 62 54 43 52 52 16 27 47 34 34 16 11 11 14 43 100 99 100

GFSFLT1_500_rhum_156.txt.gz
RH
14 14 12 9 8 7 6 6 6 6 6 6 6 6 7 7 8 8 9 9 10 10 10 11 11 12 14 14 12 10 9 8
39 37 34 32 31 30 27 23 21 18 15 15 14 13 12 12 12 14 14 13 12 14 15 14 14 14 14 13 11 10 8 10
27 28 28 28 27 27 28 29 33 41 33 27 28 29 30 30 29 27 25 23 20 19 17 16 15 15 13 10 8 8 8 12
33 37 34 32 33 33 34 35 35 34 32 31 31 31 31 30 29 27 25 23 21 19 18 18 17 14 10 8 8 9 9 12
39 37 35 32 31 30 30 29 29 30 31 31 30 29 28 25 23 23 22 21 20 20 21 20 17 14 11 13 14 14 12 11
45 39 32 27 25 25 25 25 25 25 27 27 25 24 24 24 24 22 23 25 27 31 31 27 19 17 12 6 5 4 3 3
40 25 23 23 25 26 26 26 27 29 28 29 32 35 38 43 47 45 39 34 32 28 21 15 7 3 6 9 7 7 10 10
49 39 33 37 35 38 44 52 54 56 61 71 75 70 62 60 56 52 43 32 22 8 6 6 15 18 27 32 30 20 16 15
38 53 66 74 76 84 90 91 90 88 86 85 79 72 66 55 34 17 14 7 10 14 16 19 29 33 41 36 30 29 23 21
77 69 60 64 73 95 100 100 96 89 84 80 67 42 22 14 15 20 27 25 23 23 26 31 38 41 43 46 31 22 21 21
70 68 81 84 98 98 90 78 80 80 62 37 19 22 38 38 50 44 35 34 40 44 36 31 47 52 47 40 33 27 20 20
76 100 96 98 96 87 86 89 90 76 39 42 56 59 66 74 57 45 43 48 49 43 41 43 53 50 49 49 38 34 37 45
76 80 92 78 82 90 100 99 100 98 50 74 63 65 97 82 64 56 64 66 55 47 50 56 50 51 47 47 38 44 66 72
70 80 66 72 89 100 100 100 87 42 78 91 68 85 100 88 65 74 61 72 78 63 61 64 64 50 45 40 53 60 99 91
76 63 72 72 99 100 100 61 35 74 96 97 94 100 100 96 69 84 56 35 66 91 72 70 92 98 83 69 55 63 81 82
80 66 72 80 100 100 94 34 36 97 100 100 100 100 100 100 74 83 100 81 25 39 99 64 46 67 90 100 100 90 85 70
84 71 87 92 100 70 36 51 58 54 75 100 100 100 100 100 91 57 76 82 66 22 40 80 85 25 18 34 84 100 100 100
85 95 100 73 28 35 42 40 38 40 46 63 98 100 100 100 100 92 58 46 47 42 14 26 41 40 18 12 13 20 71 100
100 64 25 17 11 8 5 4 5 10 22 46 82 100 100 100 100 100 100 65 23 18 17 14 22 26 20 16 16 16 15 30

GFSFLT1_500_rhum_162.txt.gz
RH
41 39 36 35 31 31 32 31 28 22 22 22 25 30 35 36 36 35 34 32 30 29 29 32 31 32 34 30 24 22 22 22
39 41 39 49 47 44 41 37 36 37 37 37 36 35 32 30 29 28 29 29 28 26 26 26 27 28 28 30 33 31 25 20
48 55 62 63 48 41 41 42 44 45 44 42 39 38 37 36 35 34 34 32 31 30 29 28 27 27 28 28 29 32 34 28
54 56 70 70 59 55 55 62 58 52 47 46 44 41 38 35 33 31 29 28 26 26 24 23 22 22 22 21 21 20 20 23
36 42 84 84 69 67 63 59 78 71 33 18 20 21 23 23 24 24 24 24 23 23 22 21 20 20 19 19 19 20 21 23
56 74 81 66 60 72 94 98 100 85 47 29 20 28 33 43 41 38 38 35 31 28 28 26 24 25 26 27 26 26 28 30
85 79 83 96 100 100 100 96 98 67 42 42 42 55 60 69 72 71 67 64 54 48 40 33 29 24 22 23 21 21 22 22
100 100 100 100 100 96 82 71 56 41 37 47 62 69 75 80 82 80 75 72 65 52 46 42 39 36 30 24 21 17 14 11
85 80 86 78 76 72 76 57 38 31 57 59 73 80 77 79 82 73 53 38 38 41 44 38 33 25 18 18 22 22 18 16
100 100 100 99 94 91 66 50 50 56 68 84 83 86 97 96 93 92 60 70 72 77 64 53 43 36 28 24 28 29 27 30
100 98 92 92 87 73 63 58 60 77 82 74 79 78 84 87 95 97 74 85 95 90 68 58 53 48 38 37 34 29 30 39
96 98 86 92 78 59 47 42 43 49 54 55 70 76 97 69 48 87 96 91 100 99 84 62 59 58 51 45 40 48 40 39
84 84 83 98 77 61 56 60 49 53 53 62 67 99 95 43 83 100 100 100 100 100 97 85 91 69 55 64 54 45 51 66
72 76 82 83 67 44 54 54 58 54 54 61 86 99 58 41 95 99 98 100 100 100 100 91 91 82 36 59 69 42 51 55
64 90 89 78 47 31 30 38 62 62 61 76 90 52 52 46 54 88 100 98 98 100 100 98 82 67 53 35 55 65 20 46
66 94 58 33 35 32 41 69 67 72 79 39 30 18 16 22 35 56 70 91 97 100 100 99 74 57 47 52 30 50 55 19
78 80 80 62 61 68 79 76 73 45 10 4 4 4 5 5 7 11 55 59 100 94 100 100 96 48 28 30 36 27 39 30
77 79 86 96 91 85 85 41 9 4 4 4 4 4 4 5 8 10 29 78 84 98 91 100 100 76 59 42 58 33 32 35
89 95 96 92 86 42 8 3 3 4 4 5 4 5 8 10 13 30 69 80 77 77 86 90 98 100 99 86 86 88 46 46

GFSFLT1_500_rhum_165.txt.gz
RH
47 46 44 42 39 39 38 38 40 44 44 41 39 37 37 37 36 35 34 33 32 30 31 34 35 34 32 30 29 27 23 24
40 39 41 48 47 48 53 54 56 54 51 51 50 49 47 47 44 40 37 34 32 32 31 30 29 29 33 34 30 28 26 25
59 52 46 52 62 68 63 55 47 47 48 50 51 54 51 41 36 37 39 38 38 37 35 34 32 32 32 30 30 29 28 28
48 61 73 74 71 60 61 64 61 69 68 64 56 45 40 31 24 21 19 20 22 24 25 26 27 27 26 25 25 25 24 23
64 49 44 54 58 59 74 92 99 100 91 84 76 52 52 40 29 23 19 16 14 16 19 21 20 20 20 21 21 20 20 20
41 42 47 56 58 64 93 100 100 94 95 85 64 52 33 26 25 23 21 22 23 33 48 42 29 30 22 18 16 17 17 17
53 60 56 67 94 100 100 98 96 88 69 60 54 41 31 40 57 66 66 65 66 68 65 61 57 53 48 40 33 31 26 21
75 80 93 100 100 95 90 76 62 71 72 53 40 36 39 65 76 76 71 72 74 78 68 48 42 41 39 34 30 28 22 21
40 66 87 95 80 67 73 69 59 54 48 47 44 47 55 66 72 80 76 75 69 88 78 62 62 63 54 43 32 23 21 24
100 98 95 99 89 80 76 61 62 68 65 53 38 46 65 68 67 83 69 77 51 80 77 74 85 75 59 49 43 40 32 26
92 78 74 75 73 71 78 74 62 54 43 38 36 46 50 51 65 79 89 52 69 100 97 100 100 91 71 67 57 46 36 40
69 55 49 68 66 73 84 87 78 56 43 53 47 49 52 58 69 87 66 44 89 97 96 95 95 96 87 79 64 52 49 35
60 92 76 71 71 70 74 69 71 54 45 50 54 57 58 69 94 68 38 52 90 100 96 96 94 94 89 83 79 54 55 57
22 67 94 74 58 67 74 74 67 47 34 34 66 74 82 64 31 32 39 49 59 88 99 98 94 96 94 78 66 64 55 54
34 36 32 35 60 85 73 43 38 26 36 70 81 66 17 7 5 5 6 7 18 28 51 72 82 98 94 66 40 37 56 42
13 12 32 69 80 73 61 54 60 60 77 75 22 4 4 4 4 5 6 7 11 29 66 71 93 93 97 86 43 28 31 29
24 66 74 77 76 76 73 79 81 80 43 6 4 4 5 5 5 5 6 7 10 22 36 79 76 85 88 90 73 54 38 46
30 47 86 85 85 87 87 91 66 10 4 4 5 6 7 7 7 7 7 10 22 44 62 65 67 56 72 86 93 93 94 90
72 79 80 94 96 95 82 15 4 4 4 5 6 7 7 7 7 7 9 19 24 34 54 57 61 63 60 63 82 92 97 95

GFSFLT1_500_rhum_168.txt.gz
RH
43 47 51 56 57 53 48 45 43 42 44 46 52 55 55 55 55 53 52 50 48 45 42 41 38 34 32 32 32 31 32 30
49 56 58 58 58 64 57 48 54 60 62 61 53 50 55 51 52 55 48 45 41 36 33 31 29 28 29 31 32 32 32 28
58 66 71 75 79 66 53 70 73 66 49 43 50 61 64 56 53 45 35 26 23 23 21 20 20 20 20 22 23 25 28 29
65 77 79 65 66 76 92 87 64 51 62 80 85 84 70 64 67 61 42 32 31 30 28 22 18 14 14 14 17 20 20 23
58 64 80 83 84 81 68 52 56 87 98 94 100 92 86 79 58 46 36 30 26 23 19 17 15 15 14 16 13 10 11 9
61 79 100 100 99 89 81 88 100 100 100 100 99 81 59 56 54 43 32 28 30 34 40 43 40 33 32 39 44 39 32 25
89 96 94 97 98 100 100 100 98 99 97 82 61 46 40 40 38 39 38 39 52 56 63 67 62 52 67 57 48 41 40 35
82 89 96 100 100 100 100 100 99 93 84 63 54 40 40 42 43 36 45 48 57 67 70 64 50 38 77 65 60 62 53 41
86 66 72 94 94 95 100 99 89 85 65 48 35 38 40 35 29 30 35 42 49 54 64 58 29 71 81 85 89 68 57 47
35 45 74 99 99 96 94 85 63 50 48 52 55 55 46 36 34 36 47 47 51 66 66 24 64 91 92 91 96 89 72 59
88 73 73 70 70 61 47 60 64 83 90 95 85 62 46 47 51 53 50 59 74 65 31 48 77 93 98 96 93 88 79 67
47 46 48 46 70 74 75 85 90 90 92 91 81 64 43 41 47 61 70 60 22 16 20 34 73 97 99 94 98 97 86 79
26 26 28 26 29 89 75 58 50 70 84 80 75 53 32 34 73 61 9 4 4 4 6 18 33 74 77 93 96 97 93 66
27 20 26 24 38 42 58 55 44 78 80 50 45 28 37 71 27 4 4 4 4 5 6 7 19 36 83 74 91 86 86 48
20 28 30 30 29 23 26 54 75 69 63 56 50 61 63 7 4 5 6 6 5 6 8 14 32 53 81 77 74 92 88 60
30 30 29 26 12 62 57 79 73 69 66 64 72 47 4 5 6 8 8 9 8 7 8 11 28 48 59 65 77 82 90 83
27 20 10 19 65 57 84 81 81 87 85 81 20 4 5 7 8 9 9 8 9 9 10 20 41 50 62 63 58 48 66 81
38 40 29 32 57 88 84 86 89 90 61 5 4 5 6 8 9 10 9 9 9 11 13 19 28 38 45 52 59 60 62 65
67 67 81 87 81 85 97 90 88 25 4 5 7 9 11 12 12 10 9 9 9 12 16 24 30 40 46 52 59 59 59 58

GFSFLT1_500_rhum_174.txt.gz
RH
43 39 38 37 36 36 38 49 62 66 67 73 78 80 75 62 56 53 65 70 66 57 51 56 59 57 52 46 43 37 32 30
56 47 44 42 40 39 44 54 64 67 77 85 88 79 68 61 67 74 72 67 59 57 60 63 64 62 57 50 41 33 24 17
71 66 57 50 52 59 62 62 65 70 77 81 78 70 64 71 80 83 76 66 67 76 73 66 53 41 33 29 23 19 15 14
76 81 82 81 79 82 91 91 90 88 83 76 73 69 70 80 91 84 75 80 82 73 62 47 38 34 26 22 19 13 10 8
72 73 75 76 79 85 91 91 86 84 84 88 83 86 98 94 90 96 100 92 78 63 44 35 30 27 20 15 12 16 20 22
60 63 69 75 86 95 99 98 99 99 100 98 99 98 96 98 100 100 92 61 50 43 34 30 24 21 20 20 17 22 30 31
53 52 57 64 75 84 87 87 82 89 93 95 99 99 98 100 85 70 59 54 46 39 34 32 28 24 20 19 24 34 45 19
52 53 55 63 67 75 78 81 86 100 100 99 100 100 100 97 78 53 57 50 51 49 41 31 33 31 29 39 47 23 9 14
55 52 52 56 60 64 67 72 64 39 39 39 59 74 71 61 54 63 63 60 52 51 40 30 39 47 43 17 4 6 12 28
51 53 55 54 58 57 53 47 71 80 100 83 56 56 53 51 58 64 60 46 42 45 32 36 40 7 4 4 4 5 8 22
50 56 61 58 59 70 72 60 52 47 40 35 38 51 62 64 58 54 48 40 46 32 36 20 4 5 4 5 5 5 7 9
52 61 69 77 67 63 42 27 28 28 27 24 20 35 59 56 42 37 41 48 32 41 10 6 7 7 8 7 6 7 8 16
53 61 62 98 100 73 41 36 26 21 24 25 23 26 54 66 45 61 49 36 44 7 8 9 11 11 12 11 9 9 11 20
45 44 46 76 100 71 56 61 29 25 39 36 35 20 24 50 64 55 53 51 8 7 10 12 12 14 14 13 12 12 20 31
31 30 34 43 75 80 47 28 25 34 47 47 23 26 40 71 62 62 56 7 7 9 11 13 16 16 16 15 13 12 15 20
34 21 16 18 22 22 24 31 31 28 39 29 75 76 82 80 79 58 6 6 9 13 15 16 16 15 14 14 15 16 18 22
36 39 38 34 36 35 32 32 20 11 34 90 100 79 93 89 66 5 6 10 12 14 15 17 17 17 17 16 18 19 22 24
44 42 35 30 32 36 34 30 32 46 56 86 75 95 92 73 6 7 10 12 16 26 32 30 25 24 25 25 25 22 20 19
30 30 31 32 39 40 55 64 68 86 100 100 93 100 79 8 6 8 13 21 27 35 39 37 34 30 28 28 29 31 33 34

GFSFLT1_500_rhum_177.txt.gz
RH
52 49 48 46 44 41 39 38 37 38 39 40 44 53 62 65 66 68 69 70 66 64 67 65 65 59 54 51 49 49 50 50
55 61 65 65 63 57 52 46 44 43 41 43 50 60 67 66 66 69 70 67 63 63 68 71 66 59 57 60 52 50 47 42
58 63 68 72 75 73 68 64 60 58 58 58 62 67 70 71 75 73 68 68 69 75 74 69 63 66 66 60 45 40 34 25
53 57 62 67 73 77 79 81 83 84 84 84 81 81 85 86 77 76 78 82 75 74 71 79 81 66 49 40 34 31 27 20
52 56 58 60 60 64 67 75 85 86 84 84 82 83 80 81 85 92 93 88 81 90 97 71 54 47 40 35 31 25 21 20
46 52 57 60 62 63 66 72 82 90 94 92 87 93 98 100 99 95 86 88 92 80 64 51 41 38 37 33 30 25 19 14
35 37 38 38 47 53 68 79 87 97 100 100 97 100 100 97 98 100 100 99 93 66 54 49 50 44 41 34 27 24 21 24
27 23 26 33 44 49 53 62 74 87 90 98 85 85 85 88 86 85 86 73 63 60 52 47 52 46 39 28 32 28 13 4
37 37 37 42 47 48 52 56 61 66 70 70 70 43 44 73 73 65 57 58 58 59 62 54 43 38 30 32 11 4 4 4
34 34 33 31 29 34 42 48 56 58 58 54 62 82 70 50 45 53 60 59 60 55 49 44 37 29 27 5 6 6 6 5
43 40 38 35 35 45 54 54 55 61 66 66 56 48 44 38 34 39 54 59 45 41 39 39 32 23 8 11 11 11 10 7
50 48 47 44 55 63 72 72 66 60 50 34 27 28 29 28 24 22 44 65 48 53 46 32 24 8 12 15 17 14 14 11
57 52 50 54 62 62 73 90 88 72 47 31 29 23 23 27 27 23 22 39 44 52 48 32 9 12 15 18 18 18 17 16
55 50 52 57 42 42 56 87 99 84 71 54 59 30 47 52 31 22 36 55 58 56 41 7 11 16 18 20 21 20 19 17
68 65 56 66 64 57 69 87 100 94 84 43 25 29 48 34 30 47 70 70 67 46 6 11 15 19 21 22 22 22 21 21
66 62 42 27 33 21 51 77 62 44 26 29 32 28 64 74 88 81 90 86 50 6 9 18 18 19 21 27 27 26 27 28
58 41 32 31 30 24 18 24 25 30 34 32 18 15 81 100 100 84 97 68 5 9 13 17 20 22 29 33 35 33 33 35
39 41 42 44 43 42 40 36 34 33 34 24 25 51 58 94 88 96 92 8 8 13 15 25 37 39 38 37 37 38 41 43
48 44 41 35 33 31 33 39 42 41 52 73 72 90 100 99 94 97 24 6 10 14 21 34 41 40 40 41 43 44 45 45

GFSFLT1_500_rhum_183.txt.gz
RH
59 60 61 64 71 70 67 68 70 70 69 69 67 65 62 60 60 61 62 63 63 65 66 70 73 72 67 59 51 49 52 52
52 56 53 54 59 64 62 60 57 55 53 55 59 60 64 64 68 70 72 73 75 79 81 82 85 80 72 64 58 57 52 54
45 52 79 93 72 65 63 61 58 57 53 58 62 63 66 70 74 76 78 80 84 88 89 84 79 73 70 66 62 59 58 58
39 44 73 74 63 59 74 92 91 80 68 66 65 67 72 78 79 80 83 88 91 89 87 81 80 78 73 77 77 66 60 64
24 43 86 63 48 57 61 67 88 91 90 88 72 72 79 84 80 81 85 84 83 87 90 82 81 81 81 76 68 71 66 55
50 64 77 63 43 35 43 63 64 68 73 64 66 69 71 69 71 74 77 82 91 97 84 76 72 53 56 62 62 56 48 44
84 82 87 64 40 30 28 31 39 42 54 56 60 58 68 65 70 80 88 88 90 86 74 56 49 45 45 45 43 43 43 38
92 97 100 64 29 21 18 17 21 21 21 27 30 41 51 58 59 62 72 75 71 63 53 51 49 49 45 38 36 42 35 33
100 100 85 60 33 24 20 21 22 23 25 36 42 44 47 49 54 59 59 59 59 60 52 49 42 30 26 25 32 32 27 28
100 100 77 56 34 28 26 29 31 32 34 34 32 33 38 45 52 58 62 62 57 49 42 31 31 30 24 20 31 30 32 27
97 92 83 63 60 42 36 38 41 42 42 39 39 42 46 54 62 64 62 55 48 33 30 35 33 28 16 18 36 38 27 10
100 98 83 82 71 58 50 49 51 50 50 48 49 56 63 72 75 69 59 44 37 40 49 33 34 16 22 36 40 36 10 14
98 93 80 63 62 64 63 52 57 56 58 64 62 65 84 94 85 74 70 58 62 57 33 32 22 23 45 45 43 9 12 19
98 81 54 53 53 62 63 70 73 67 75 71 54 49 65 87 100 100 95 87 61 34 37 31 61 62 52 52 12 9 15 24
78 80 61 47 48 62 74 86 88 91 100 86 64 57 63 99 97 100 95 36 26 34 57 89 76 74 70 22 8 15 22 26
93 76 61 61 67 61 70 90 88 86 100 100 99 78 78 95 97 88 48 32 37 42 69 100 80 87 37 6 12 16 21 26
77 73 70 61 59 54 67 84 90 81 65 72 76 80 80 81 74 58 35 36 18 58 94 97 92 83 6 9 14 25 35 38
56 50 45 49 55 61 70 49 44 39 31 28 27 27 32 58 74 26 39 22 70 80 90 100 96 55 7 11 20 33 41 41
46 44 32 60 69 68 71 50 47 46 46 45 44 43 36 31 32 41 36 58 84 100 100 97 98 33 8 12 22 35 41 41

GFSFLT1_500_rhum_186.txt.gz
RH
38 42 50 55 71 71 72 84 89 79 72 72 75 76 81 82 69 56 55 59 64 67 70 72 73 73 75 79 86 85 74 55
28 33 38 45 64 89 95 83 70 67 69 66 66 73 71 69 66 67 70 73 73 74 75 76 78 81 84 88 87 76 65 64
28 24 29 32 51 79 90 81 88 88 80 92 93 88 78 72 79 83 86 87 91 93 90 89 89 90 88 82 81 76 66 60
14 23 36 64 64 90 94 83 60 67 78 95 91 94 99 97 97 96 98 99 98 98 95 92 87 82 82 77 66 64 64 64
9 16 45 98 99 100 98 71 58 69 76 78 89 94 100 97 98 100 99 98 97 90 79 76 82 84 75 63 60 57 49 45
26 31 87 100 100 99 100 84 48 34 44 63 75 89 100 96 97 97 90 79 76 84 86 82 76 74 64 54 47 42 41 42
28 63 100 87 94 100 99 91 42 25 34 51 64 72 74 75 77 79 83 82 76 69 64 62 64 61 53 45 41 43 44 41
21 39 94 100 100 98 77 93 54 31 23 26 31 35 38 47 58 60 59 56 55 54 56 57 54 48 44 42 42 38 34 30
40 72 100 100 100 94 100 86 46 26 22 20 21 22 29 40 47 48 44 43 46 50 51 50 46 46 46 38 36 34 29 22
74 98 99 100 99 100 96 90 49 29 27 26 26 27 32 34 36 34 34 41 47 52 54 52 50 40 37 42 39 33 21 14
91 95 88 100 99 99 96 100 50 61 47 34 34 38 39 40 40 40 44 54 61 62 61 53 44 45 51 39 29 16 13 27
93 82 100 75 70 95 100 94 95 88 69 49 44 47 51 54 49 52 60 68 72 73 64 65 64 62 42 29 20 19 40 42
74 98 100 100 100 100 100 100 78 55 59 62 54 54 60 63 59 59 70 84 78 92 90 78 72 47 36 26 29 53 50 49
78 94 100 100 100 100 100 81 71 63 66 60 65 66 74 78 63 58 72 82 89 85 100 67 32 34 41 59 64 68 67 12
86 59 89 99 100 99 94 76 73 71 71 70 79 83 86 82 56 51 62 100 92 82 77 35 42 39 68 83 73 88 17 9
99 100 100 96 95 55 50 69 80 77 72 84 99 100 99 95 95 86 100 96 96 76 45 43 31 47 93 87 96 50 7 11
100 100 98 100 87 57 64 73 70 63 69 73 86 94 100 100 100 100 98 100 82 75 37 34 22 70 96 100 100 10 9 13
100 98 88 99 77 49 49 99 74 59 69 64 77 97 98 96 86 43 26 62 100 93 35 30 84 79 99 100 93 8 10 17
88 96 100 85 38 36 67 69 68 82 74 48 41 38 40 38 32 28 29 43 71 29 40 55 77 97 100 100 91 9 10 17

GFSFLT1_500_rhum_189.txt.gz
RH
35 40 41 39 38 39 44 54 65 76 89 92 97 97 95 87 73 71 83 79 78 73 71 65 63 64 68 73 78 77 75 73
23 22 20 24 34 46 45 38 77 73 100 100 98 97 96 98 99 98 95 89 88 93 94 94 93 95 97 94 88 83 81 79
12 16 24 20 20 25 34 37 55 76 87 92 99 98 95 98 98 99 97 98 99 99 98 97 96 97 99 98 95 88 85 74
10 12 11 14 20 21 25 25 54 84 97 94 84 100 96 97 98 99 98 99 98 98 98 99 99 100 100 96 86 80 76 58
18 13 13 11 28 39 46 49 46 74 87 61 45 54 74 84 90 88 99 98 97 98 98 97 99 91 81 83 85 73 60 51
16 18 22 22 19 49 64 67 82 71 96 74 32 29 45 71 85 95 97 100 99 94 87 79 81 84 79 74 69 61 50 38
24 20 17 22 35 64 65 84 94 94 100 92 60 41 30 45 65 72 74 75 73 74 76 74 66 63 59 58 52 44 37 35
32 30 30 29 40 56 77 92 97 99 91 100 81 40 23 22 29 35 39 46 52 55 57 56 53 52 48 42 37 36 39 43
49 42 33 33 42 61 61 76 100 100 75 100 60 28 23 23 22 24 35 49 49 47 44 42 41 41 42 42 41 44 41 40
35 33 33 55 70 84 100 100 99 100 100 95 62 29 28 28 27 28 30 36 38 37 38 39 39 43 44 48 48 46 47 43
44 50 86 88 97 99 100 100 98 99 100 100 84 39 56 48 35 37 36 41 44 43 41 44 45 50 55 61 60 56 48 36
60 75 85 98 100 70 86 98 99 100 100 100 85 68 61 59 48 45 45 50 54 48 50 55 59 61 65 59 56 54 40 31
53 83 89 78 99 77 100 100 100 100 100 96 82 47 47 59 60 56 52 55 56 57 60 60 55 62 61 56 48 38 42 27
86 88 95 100 83 55 98 100 100 99 89 86 72 54 51 54 55 64 63 66 68 65 57 46 55 66 70 43 38 45 42 42
100 100 98 81 81 100 100 100 100 97 80 82 71 53 57 63 63 68 68 75 72 59 58 74 76 79 62 41 43 35 62 58
73 98 99 98 100 100 100 100 100 79 59 65 49 57 68 80 82 82 83 97 90 90 87 86 87 75 43 38 26 59 80 78
76 95 100 100 100 100 100 100 100 89 75 59 61 69 67 90 100 100 100 99 100 96 100 99 100 90 69 27 39 81 82 92
84 98 88 97 100 100 100 100 100 98 79 80 79 58 61 73 87 99 100 100 100 96 98 99 79 96 42 42 77 68 89 97
99 86 89 96 96 98 100 92 100 98 88 81 70 78 71 63 55 92 100 100 100 100 98 49 50 91 38 60 69 74 90 95

GFSFLT1_500_rhum_192.txt.gz
RH
25 29 36 43 43 43 42 41 44 40 39 45 48 66 92 95 98 97 95 74 33 40 42 43 56 82 92 84 74 66 66 66
22 20 22 27 32 31 21 18 19 25 41 53 60 79 95 100 97 99 97 96 93 86 78 82 83 79 87 91 91 86 86 89
30 30 17 19 18 12 12 14 19 22 38 75 63 73 91 97 100 94 90 92 98 97 97 97 96 96 96 96 96 96 93 92
33 38 19 14 18 18 16 18 22 46 66 70 84 96 94 97 95 98 96 98 100 99 98 98 98 99 99 99 97 93 87 81
36 27 21 18 37 27 20 25 46 66 68 75 75 80 85 93 52 52 72 89 95 98 100 100 98 98 97 92 88 84 80 78
23 36 36 30 25 23 25 38 56 70 74 91 81 76 87 77 31 31 28 46 74 86 92 97 91 82 82 84 82 76 60 57
17 22 29 29 31 33 34 48 55 75 96 97 98 100 89 100 57 44 37 35 57 72 77 80 82 82 74 66 65 55 49 46
26 26 25 30 38 38 37 48 61 81 100 100 100 98 100 88 73 39 22 25 24 28 32 35 45 46 54 56 53 47 42 35
48 46 42 46 50 48 42 40 46 67 86 94 94 100 100 94 96 32 23 24 32 38 37 36 39 38 38 38 40 40 36 37
65 63 62 60 56 45 36 35 53 69 80 88 97 100 100 99 78 28 29 35 39 38 40 43 43 40 41 41 39 42 45 46
60 60 57 58 46 43 44 49 68 92 100 100 100 99 100 95 65 37 44 46 41 41 44 47 50 47 47 44 45 45 45 49
56 64 53 44 42 56 50 73 100 100 100 100 100 99 98 95 99 92 68 52 50 49 49 48 54 49 50 53 50 50 51 48
85 66 48 60 83 67 65 100 98 100 98 100 100 100 100 100 90 80 58 49 49 54 57 56 59 61 56 52 53 52 47 46
46 51 78 73 74 82 100 98 100 98 98 100 98 99 100 94 79 52 38 47 50 53 58 68 69 66 54 48 59 57 61 52
91 91 82 100 100 100 100 99 96 84 100 99 100 100 81 71 54 53 52 57 61 64 72 86 73 71 72 83 74 71 58 51
33 52 80 83 97 100 100 100 75 97 97 98 100 100 52 36 50 62 66 70 76 86 87 86 84 86 86 86 80 63 51 38
40 44 46 83 93 100 100 99 100 100 100 100 86 54 37 52 61 68 64 90 93 78 94 89 86 93 97 86 83 82 76 30
100 98 89 84 95 100 100 100 100 100 100 100 81 47 29 51 41 55 57 100 99 93 100 97 97 100 99 100 99 92 79 43
100 100 100 100 96 100 100 100 100 100 99 97 80 51 36 24 32 46 51 76 88 96 100 100 100 100 100 94 85 59 66 52

GFSFLT1_500_rhum_195.txt.gz
RH
24 27 26 26 36 49 52 54 61 54 46 43 42 50 51 52 65 86 97 98 99 98 88 74 53 70 81 98 90 85 84 64
28 29 28 26 27 27 21 28 30 32 34 33 29 19 29 42 44 64 96 93 89 98 99 98 97 69 56 59 56 67 74 88
31 31 31 30 31 34 28 21 25 32 39 47 30 52 67 70 70 66 88 98 98 97 98 100 97 97 97 96 74 80 86 95
28 34 36 38 40 37 20 20 22 24 40 57 59 58 73 86 86 78 74 89 97 97 100 92 99 99 98 99 99 98 100 100
19 17 21 22 26 32 25 21 27 33 30 48 53 62 69 75 96 96 92 91 92 86 100 100 100 100 98 99 100 98 96 97
23 22 22 22 22 21 31 34 33 32 34 48 51 67 70 86 86 99 99 99 66 60 70 77 77 85 88 91 84 82 81 73
26 22 20 23 26 27 32 28 25 29 29 53 68 76 78 85 91 98 96 97 54 50 50 70 69 77 85 75 65 53 47 43
26 23 23 27 36 45 55 58 47 44 44 53 58 78 95 87 97 99 99 98 86 50 51 62 69 70 60 46 37 33 30 27
38 37 36 38 42 53 72 73 63 65 54 51 52 54 58 75 96 93 93 100 99 42 48 48 48 46 43 38 35 33 33 34
48 46 47 52 57 67 77 74 78 71 64 58 67 68 86 67 59 74 92 100 100 58 42 40 40 48 46 45 42 41 39 38
70 76 73 72 66 65 64 62 56 58 61 61 67 66 87 74 71 86 100 100 99 78 56 53 54 55 55 52 52 49 49 46
53 53 57 62 68 66 68 67 65 58 59 54 81 75 57 79 100 100 100 100 98 87 90 60 55 53 58 60 61 59 58 50
62 84 88 96 100 100 86 82 80 73 90 83 83 99 99 99 100 100 100 99 100 100 88 62 62 61 62 65 70 64 61 52
100 100 90 89 81 94 98 76 74 73 81 95 100 100 100 100 100 100 100 99 100 84 56 59 61 64 68 74 73 64 54 60
93 61 50 52 64 90 74 49 89 92 100 100 99 99 100 100 100 99 100 82 60 50 49 60 69 73 83 78 71 68 79 79
66 60 62 82 93 100 96 99 98 100 100 100 98 87 100 100 92 93 87 65 52 54 55 68 78 83 87 81 83 85 85 85
97 87 73 79 58 48 49 98 100 100 100 100 100 91 100 97 92 87 66 60 74 74 69 82 89 93 94 97 92 100 92 74
100 100 97 95 74 78 86 98 100 100 99 100 100 100 100 96 65 58 69 69 68 66 92 97 83 85 94 100 100 100 99 74
95 100 100 100 88 86 100 100 100 100 100 100 99 99 82 70 72 78 77 89 100 99 100 100 99 99 99 100 100 96 100 100